Zurück zum Katalog

SL-16 DEB

AktivSSO
NORAD 35420·DEBRIS·🇷🇺 Russia

Gestartet Dec 10, 2001 von Baikonur Cosmodrome

Loading…

Nächste Überflüge (nächste 24 Stunden)

TLE

AktuellSource: Space-Track

Epoche: Sep 14, 2026, 08:11 UTC

1 35420U 01056M   26257.34148984  .00000331  00000-0  37493-3 0  9995
2 35420  99.4641  31.6978 0024207  35.9052 352.5415 13.77786834239050

Verfolge SL-16 DEB in Echtzeit mit AllMySat

Download on the App Store